Regional Weather Roundup
Issued by NWS Upton, NY

Current Version | Previous Version | Text Only | Print | Product List | Glossary On
Versions: 1 2 3 4 5 6 7 8 9 10 11 12 13 14 15 16 17 18 19 20 21 22 23 24 25 26 27 28 29 30 31 32 33 34 35 36 37 38 39 40 41 42 43 44 45 46 47 48 49 50
797
ASUS41 KOKX 291209
RWROKX

REGIONAL WEATHER ROUNDUP
NATIONAL WEATHER SERVICE NEW YORK NY
800 AM EDT THU JUN 29 2017

NOTE: "FAIR" INDICATES FEW OR NO CLOUDS BELOW 12,000 FEET WITH NO
SIGNIFICANT WEATHER AND/OR OBSTRUCTIONS TO VISIBILITY.

NYZ071-072-176-178-NJZ106-104-291300-
NEW YORK CITY METRO AREA

CITY           SKY/WX    TMP DP  RH WIND       PRES   REMARKS
Central Park   CLOUDY    70  58  65 VRB5      30.18F
Bronx Bot Gard   N/A     72  57  60 W1        30.17F
LaGuardia APRT CLOUDY    71  59  65 SW10      30.15S
Kennedy INTL   PTSUNNY   69  62  78 SW10      30.17S
Breezy Point     N/A     66 N/A N/A SW6         N/A
Newark/Liberty PTSUNNY   70  58  65 SW12      30.16S
Teterboro      NOT AVBL
$$

NYZ177-179-078>081-291300-
LONG ISLAND NEW YORK

CITY           SKY/WX    TMP DP  RH WIND       PRES   REMARKS
Jones Beach      N/A     64 N/A N/A SW3         N/A
Matinecock PT  NOT AVBL
Farmingdale    CLOUDY    68  59  73 SW8       30.17S
MacArthur/ISP  CLOUDY    69  59  70 SW9       30.18R
Shirley        CLOUDY    69  60  73 SW7       30.19R
Mt Sinai Harb    N/A    N/A N/A N/A SW6         N/A
Westhampton    CLOUDY    67  61  81 SW5       30.20R
East Hampton   FAIR      67  57  72 SW3       30.17R
Montauk          N/A     68  60  75 CALM      30.19R
$$

NYZ052-065-067-291300-
HUDSON VALLEY

CITY           SKY/WX    TMP DP  RH WIND       PRES   REMARKS
White Plains   CLOUDY    67  57  70 SE3       30.16R
Larchmont Harb   N/A     66 N/A N/A S7          N/A
Croton O-T Hud   N/A     68 N/A N/A SW1         N/A
Newburgh       PTSUNNY   66  57  72 CALM      30.14F
Montgomery     CLOUDY    64  56  75 S5        30.13F
Poughkeepsie   CLOUDY    66  55  67 CALM      30.13S
Albany         NOT AVBL
$$

NJZ001-105-106-008-010-013-015-019>022-104-291300-
NEW JERSEY

CITY           SKY/WX    TMP DP  RH WIND       PRES   REMARKS
Newark/Liberty PTSUNNY   70  58  65 SW12      30.16S
Teterboro      NOT AVBL
Caldwell       SUNNY     68  56  65 W3        30.16F
Somerville     NOT AVBL
Linden         FAIR      70  57  63 CALM      30.16F
Perth Amboy      N/A     68 N/A N/A SW9         N/A
Sussex         SUNNY     64  58  80 SW3       30.15F
Andover          N/A     67  58  72 SW5       30.16S
Trenton        CLOUDY    69  61  75 S8        30.16F
Millville      CLOUDY    72  65  78 VRB3      30.18S
Atlantic City  PTSUNNY   70  56  61 S8        30.19S
Wrightstown    CLOUDY    66  61  82 SW6       30.15S
Toms River     CLOUDY    68  60  75 SW9       30.19S
Belmar         PTSUNNY   69  60  73 S7        30.18F
$$

PAZ047>061-062-071-291300-
EASTERN PENNSYLVANIA

CITY           SKY/WX    TMP DP  RH WIND       PRES   REMARKS
Philadelphia   CLOUDY    70  59  68 S12       30.17S
Allentown      NOT AVBL
Scranton       MOSUNNY   69  55  60 S7        30.12F
$$

CTZ002-004>006-009-010-012-RIZ004-006-007-MAZ004-011-015-291300-
SOUTHERN NEW ENGLAND
 IN CT

CITY           SKY/WX    TMP DP  RH WIND       PRES   REMARKS
Bradley INTL   NOT AVBL
Hartford       CLOUDY    67  57  70 S6        30.15R
Danbury        PTSUNNY   67  56  67 SW6       30.17S
Wtrbury/Oxford CLOUDY    63  52  67 CALM      30.17R
Bridgeport     CLOUDY    70  60  70 SW7       30.16R
Meriden        CLOUDY    64  58  80 CALM      30.16R
New Haven      CLOUDY    67  60  78 SW5       30.17R
Chester        FAIR      66  55  68 SW6       30.17R
Groton         CLOUDY    67  62  84 SW3       30.16R
Wilimantic     CLOUDY    62  58  86 CALM      30.16S

 IN RI

CITY           SKY/WX    TMP DP  RH WIND       PRES   REMARKS
Providence     NOT AVBL
Block Island   CLOUDY    65  58  78 SW8       30.18S
Westerly       PTSUNNY   68  62  81 SW3       30.17R
 IN MA

CITY           SKY/WX    TMP DP  RH WIND       PRES   REMARKS
Boston         CLOUDY    69  54  58 SW9       30.12R
Worcester      CLOUDY    63  51  65 SW9       30.15R
Westfield      PTSUNNY   63  57  81 S3        30.14R
Provincetown   CLOUDY    66  60  81 SW10      30.14S
Nantucket      CLOUDY    66  63  90 SW12      30.17S
$$

ANZ330-335-338-340-345-350-353-355-291300-
COASTAL MARINE OBSERVATIONS


STATION/POSITION TIME  SKY/WX   TEMP    WIND        PRES    VSBY  WAVE
                                AIR SEA DIR/SP/G                  HT/PER
                 (UTC)          (F)     (DEG/KT/KT) (MB)    (MI)  (FT/S)
NY HARB ENTRANCE 1050            67 67  210/ 12/ 16 1021.6          2/ 5
20 S FIRE ISLAND 1150            69 68  220/ 12/ 14 1021.8          3/ 6
GREAT SOUTH BAY  1130            69 74  240/ 12/ 14   N/A
23 SSW MONTAUK P 1050            66 66              1022.2          3/ 6
15 E BARNEGAT LI 1130               63                N/A           2/ 4
HUDSON CANYON    1050            69 69  240/  6/  8 1022.9          3/ 5
KINGS POINT      1130            69 65  250/  8/ 10 1021.1
EXECUTION ROCKS  1145            68     200/  6/  8   N/A
CENTRAL LI SOUND 1115            68     220/ 10/ 12   N/A           1
EASTERN LI SOUND NOT AVBL
ROBBINS REEF     1136                   250/  6/  9 1021.9
$$


>>>>>>>>>>>>>>>>>>>>>>>>>>>> KEY <<<<<<<<<<<<<<<<<<<<<<<<<<<
>                                                          <
>     SKY/WX - Sky Condition/Present Weather               <
>     TMP    - Temperature in Fahrenheit                   <
>     DP     - Dew Point in Fahrenheit                     <
>     RH     - Relative Humidity in Percent                <
>     WIND   - Direction (from) and Speed in MPH           <
>     PRES   - Mean Sea Level Pressure (inches of Hg)      <
>     WCI    - Wind Chill Index                            <
>     VSB    - VISIBILITY IN MILES                         <
>     HX     - HEAT INDEX                                  <
>     TC     - TEMPERATURE IN CELSIUS                      <
>     VRB    - VARIABLE WIND DIRECTION                     <
>                                                          <
>>>>>>>>>>>>>>>>>>>>>>>>>>>> KEY <<<<<<<<<<<<<<<<<<<<<<<<<<<




USA.gov is the U.S. government's official web portal to all federal, state and local government web resources and services.